Total_Precipitation_Accumulation
1.31 1.41 1.48 1.50 1.45 1.58 1.63 1.60 1.64 1.68 1.65 1.72 1.82 1.94 1.97 2.03 2.14 2.23 2.05 2.14 2.26 2.42 2.30 2.28 2.34 2.45 2.41 2.31 2.40 2.49 2.64 2.91 2.84 2.34 2.24 2.25 2.10 1.88 1.82 1.72 1.67 1.76 1.78
1.31 1.45 1.55 1.72 1.68 1.62 1.61 1.66 1.73 1.85 1.93 1.89 1.95 2.00 1.87 1.92 2.14 2.20 2.17 2.18 2.22 2.25 2.44 2.68 2.60 2.63 2.58 2.41 2.52 2.48 2.55 2.85 2.75 2.50 2.51 2.53 2.45 2.23 2.08 1.88 1.67 1.67 1.79
1.44 1.53 1.69 1.79 1.69 1.61 1.72 1.81 1.86 2.01 2.17 2.26 2.25 2.07 1.99 1.99 2.06 2.16 2.26 2.24 2.26 2.33 2.48 2.56 2.58 2.77 2.64 2.52 2.46 2.44 2.54 2.70 2.82 2.60 2.53 2.71 2.59 2.34 2.21 1.94 1.72 1.81 1.61
1.57 1.76 1.86 1.89 1.82 1.76 1.86 1.97 1.99 2.05 2.20 2.35 2.31 2.23 2.18 2.07 1.96 1.93 1.98 2.06 2.22 2.37 2.42 2.34 2.44 2.68 2.72 2.70 2.51 2.49 2.64 2.75 2.78 2.67 2.57 2.68 2.70 2.62 2.48 2.26 2.14 1.96 1.76
1.71 1.90 1.97 2.07 2.07 2.08 2.18 2.19 2.12 2.14 2.15 2.30 2.35 2.38 2.35 2.17 1.91 1.95 2.08 2.07 2.23 2.25 2.19 2.09 2.10 2.35 2.56 2.62 2.36 2.37 2.53 2.56 2.55 2.57 2.55 2.62 2.67 2.83 2.70 2.43 2.20 2.05 1.80
1.90 2.20 2.24 2.29 2.28 2.37 2.53 2.59 2.48 2.45 2.56 2.59 2.50 2.43 2.34 1.98 2.08 2.12 2.11 2.10 2.21 2.22 2.18 2.09 1.98 1.98 1.98 2.10 2.19 2.30 2.46 2.45 2.45 2.61 2.76 2.82 2.80 2.84 2.85 2.65 2.36 2.11 1.90
2.02 2.27 2.43 2.49 2.54 2.63 2.73 2.74 2.70 2.77 2.94 2.94 2.79 2.60 2.43 2.34 2.26 2.03 1.98 1.85 1.89 1.95 2.03 2.04 1.78 1.61 1.72 1.61 1.79 1.95 2.06 2.14 2.18 2.38 2.55 2.65 2.80 2.95 3.01 2.75 2.55 2.32 2.05
2.26 2.40 2.51 2.55 2.60 2.66 2.73 2.63 2.67 2.81 2.85 2.86 2.77 2.62 2.49 2.38 2.26 1.94 1.88 1.69 1.72 1.73 1.79 1.83 1.80 1.69 1.65 1.73 1.73 1.67 1.64 1.71 1.87 1.89 1.99 2.27 2.54 2.76 2.91 2.80 2.71 2.39 2.07
2.35 2.36 2.34 2.46 2.58 2.64 2.67 2.69 2.71 2.72 2.58 2.47 2.39 2.37 2.34 2.36 2.33 2.01 1.83 1.63 1.71 1.70 1.69 1.71 1.74 1.66 1.82 1.74 1.68 1.70 1.70 1.71 1.77 1.83 1.82 1.97 2.23 2.40 2.53 2.61 2.58 2.42 2.12
2.39 2.41 2.39 2.52 2.64 2.68 2.75 2.78 2.69 2.56 2.49 2.42 2.27 2.26 2.23 2.20 2.25 1.90 1.72 1.56 1.65 1.68 1.73 1.72 1.72 1.62 1.66 1.57 1.50 1.62 1.62 1.65 1.74 1.74 1.72 1.70 1.78 2.10 2.44 2.30 2.34 2.38 2.14
2.24 2.38 2.54 2.73 2.82 2.82 2.82 2.72 2.61 2.49 2.50 2.48 2.36 2.25 2.20 2.15 2.17 1.90 1.71 1.50 1.65 1.86 1.86 1.78 1.77 1.71 1.43 1.39 1.36 1.38 1.41 1.48 1.63 1.57 1.48 1.47 1.56 1.72 2.00 2.09 2.08 2.07 2.02
2.05 2.19 2.29 2.45 2.57 2.59 2.64 2.58 2.59 2.52 2.41 2.32 2.21 2.09 2.02 2.03 1.94 1.84 1.67 1.52 1.59 1.74 1.82 1.82 1.83 1.74 1.43 1.31 1.18 1.16 1.20 1.16 1.21 1.31 1.33 1.34 1.42 1.53 1.70 1.86 1.96 2.01 1.92
1.89 2.05 2.20 2.29 2.45 2.55 2.56 2.51 2.41 2.32 2.16 2.04 1.95 1.87 1.89 1.94 1.92 1.74 1.55 1.46 1.49 1.52 1.65 1.80 1.69 1.55 1.35 1.15 1.10 1.08 1.05 0.99 1.08 1.23 1.28 1.29 1.31 1.40 1.66 1.96 2.13 2.23 2.16
1.87 1.92 2.04 2.13 2.23 2.45 2.49 2.33 2.15 1.98 1.89 1.86 1.83 1.85 1.91 1.94 1.86 1.68 1.47 1.33 1.38 1.43 1.48 1.55 1.54 1.51 1.42 1.26 1.16 1.07 1.00 1.06 1.15 1.19 1.29 1.42 1.56 1.65 1.74 1.85 2.02 2.09 2.11
1.63 1.62 1.65 1.83 1.99 2.14 2.18 2.07 1.88 1.76 1.84 1.86 1.81 1.79 1.72 1.66 1.73 1.69 1.50 1.41 1.41 1.45 1.39 1.40 1.43 1.52 1.56 1.54 1.49 1.40 1.34 1.35 1.32 1.29 1.41 1.53 1.53 1.54 1.56 1.71 1.90 1.94 1.83
1.67 1.60 1.53 1.50 1.60 1.81 2.01 2.07 1.92 1.70 1.73 1.67 1.59 1.52 1.48 1.44 1.45 1.47 1.41 1.37 1.41 1.42 1.30 1.38 1.52 1.61 1.67 1.69 1.69 1.59 1.46 1.34 1.28 1.32 1.39 1.47 1.51 1.53 1.57 1.70 1.84 1.85 1.70
1.69 1.63 1.54 1.46 1.47 1.59 1.82 2.04 2.10 1.86 1.64 1.51 1.34 1.20 1.15 1.13 1.16 1.22 1.27 1.25 1.25 1.20 1.08 1.24 1.42 1.48 1.54 1.55 1.56 1.50 1.46 1.42 1.41 1.44 1.51 1.56 1.61 1.61 1.63 1.66 1.76 1.81 1.70
1.49 1.48 1.36 1.31 1.38 1.50 1.74 2.02 2.18 2.11 1.89 1.59 1.30 1.11 1.05 1.00 1.01 1.09 1.16 1.11 1.06 0.98 0.91 1.03 1.16 1.29 1.41 1.54 1.60 1.59 1.57 1.55 1.51 1.48 1.56 1.60 1.66 1.71 1.69 1.64 1.69 1.78 1.75
1.39 1.39 1.34 1.31 1.33 1.38 1.61 1.92 2.12 2.16 2.04 1.82 1.48 1.20 1.07 1.00 0.98 1.08 1.07 0.99 0.99 0.96 0.94 0.96 1.03 1.18 1.37 1.54 1.66 1.74 1.76 1.70 1.59 1.56 1.58 1.62 1.64 1.73 1.73 1.66 1.70 1.84 1.85
1.23 1.24 1.13 1.11 1.16 1.18 1.28 1.49 1.77 1.95 1.91 1.81 1.56 1.16 0.92 0.87 0.93 1.11 1.16 1.18 1.16 1.07 1.02 1.03 1.09 1.20 1.38 1.56 1.64 1.67 1.72 1.67 1.63 1.60 1.57 1.63 1.68 1.70 1.67 1.64 1.66 1.75 1.73
1.15 1.15 1.06 0.94 0.99 1.05 1.14 1.34 1.62 1.80 1.76 1.66 1.49 1.16 0.95 0.90 1.00 1.08 1.19 1.26 1.25 1.19 1.15 1.10 1.09 1.16 1.32 1.46 1.53 1.58 1.62 1.59 1.54 1.54 1.55 1.59 1.66 1.71 1.75 1.73 1.69 1.73 1.75
0.94 0.97 0.93 0.90 0.97 1.02 1.06 1.25 1.52 1.68 1.63 1.53 1.44 1.26 1.14 1.10 1.18 1.23 1.25 1.22 1.16 1.09 1.07 1.11 1.13 1.18 1.27 1.34 1.41 1.52 1.59 1.58 1.53 1.51 1.52 1.55 1.61 1.63 1.70 1.75 1.71 1.74 1.77
0.82 0.82 0.81 0.81 0.87 0.94 1.06 1.23 1.39 1.46 1.46 1.45 1.32 1.18 1.16 1.20 1.20 1.23 1.24 1.19 1.12 1.06 1.04 1.08 1.15 1.20 1.26 1.28 1.30 1.39 1.46 1.46 1.47 1.46 1.53 1.59 1.62 1.63 1.68 1.72 1.71 1.78 1.78
0.87 0.89 0.90 0.92 0.95 1.06 1.16 1.26 1.32 1.30 1.25 1.24 1.22 1.21 1.23 1.24 1.19 1.18 1.20 1.18 1.16 1.16 1.15 1.13 1.14 1.14 1.16 1.19 1.21 1.21 1.26 1.28 1.28 1.33 1.40 1.51 1.59 1.62 1.64 1.68 1.68 1.70 1.74
0.80 0.88 0.95 1.05 1.11 1.17 1.23 1.27 1.28 1.25 1.18 1.15 1.15 1.19 1.19 1.16 1.19 1.21 1.20 1.18 1.16 1.13 1.07 1.06 1.05 1.01 0.99 0.98 0.96 0.98 1.10 1.09 1.04 1.08 1.17 1.33 1.42 1.46 1.49 1.56 1.62 1.67 1.73
0.80 0.82 0.89 0.96 1.01 1.09 1.20 1.29 1.28 1.21 1.13 1.11 1.13 1.17 1.16 1.13 1.14 1.14 1.13 1.16 1.16 1.13 1.10 1.07 1.00 0.99 0.98 0.96 0.95 1.00 1.00 0.91 0.88 0.93 0.95 1.07 1.23 1.33 1.40 1.47 1.52 1.66 1.72